Location: Oberwangen
(47.4286°N, 8.9679°E)
Time: 07:48:53
(UTC+00:00)

Cosmos 1607 - Pass Details

Date: 23 October 2021
Orbit: 918 x 984 km, 65.0° (Epoch: 30 November)

Event Time Altitude Azimuth Distance (km) Brightness Sun altitude
Rises 17:59:14 0° 311° (NW) 3,646 7.8 -17.1°
Reaches altitude 10° 18:02:42 10° 293° (WNW) 2,681 7.4 -17.7°
Maximum altitude 18:06:33 17° 254° (WSW) 2,181 6.8 -18.4°
Drops below altitude 10° 18:10:22 10° 216° (SW) 2,641 6.7 -19.0°
Sets 18:13:46 0° 197° (SSW) 3,567 7.1 -19.6°
